Location: Hodenc
(49.4669°N, 1.8983°E)
Time: 23:09:36
(UTC+00:00)

Daily predictions for brighter satellites

Satellite Brightness Start Highest point End
(mag) Time Altitude Azimuth Time Altitude Azimuth Time Altitude Azimuth
Cosmos 1092 Rocket 4.0 16:20:49 10° N 16:27:01 89° E 16:33:09 10° S
SMAP 3.5 16:26:34 10° SE 16:30:52 38° ENE 16:35:11 10° N
Cosmos 1656 4.1 16:25:59 10° S 16:31:17 45° ESE 16:36:41 10° NE
NOSS 2-2 (C) 2.6 16:31:33 10° SW 16:34:47 86° NW 16:37:48 10° NE
Cosmos 2228 3.0 16:30:56 10° S 16:35:08 69° E 16:39:23 10° NNE
YAOGAN 1 4.4 16:33:50 10° ENE 16:35:08 11° NE 16:36:26 10° NE
Cosmos 1867 4.1 16:30:01 10° NNW 16:35:09 39° NE 16:40:15 10° ESE
Landsat 7 4.4 16:32:12 10° SE 16:36:23 34° ENE 16:40:34 10° N
Cosmos 2297 Rocket 2.3 16:33:53 10° NNW 16:39:30 57° NE 16:45:04 10° SE
USA 290 2.8 16:36:39 10° N 16:39:41 35° ENE 16:42:42 10° SE
USA 215 3.8 16:36:02 10° ENE 16:42:14 47° N 16:48:27 10° WNW
Cosmos 773 Rocket 4.0 16:37:44 10° NNW 16:42:57 69° ENE 16:48:09 10° SSE
Cosmos 1782 2.8 16:42:09 10° SSE 16:45:36 45° E 16:49:03 10° NNE
ATLAS CENTAUR R/B 0.6 16:43:10 10° NW 16:46:27 84° NE 16:49:36 10° SE
CZ-4C R/B 2.9 16:40:32 10° NW 16:47:06 61° NE 16:55:24 10° ESE
Cosmos 1607 3.9 16:42:20 10° NW 16:48:33 68° NE 16:54:49 10° SE
Cosmos 1733 1.0 16:48:06 10° N 16:49:40 51° ENE 16:51:14 10° SSE
CZ-2D R/B 3.5 16:49:21 10° SE 16:52:09 30° ENE 16:54:58 10° N
Lacrosse 4 Rocket 2.7 16:50:56 10° WSW 16:54:38 33° NW 16:58:19 10° NNE
Cosmos 2219 4.5 16:51:28 10° N 16:55:45 21° NE 16:59:36 12° E
Cosmos 1825 Rocket 4.4 16:52:50 10° N 16:56:35 27° ENE 17:00:17 10° SE
ARIANE 5 R/B 2.6 16:52:00 10° SE 16:56:54 53° ENE 17:01:54 10° N
Iridium 51 4.2 16:54:17 10° SSW 16:57:22 61° W 17:00:33 10° N
Cosmos 1315 Rocket 3.7 16:54:57 10° SSW 16:58:41 49° WNW 17:02:25 10° N
Cosmos 1758 Rocket 3.4 16:54:40 10° N 16:59:01 83° E 17:03:17 10° SSE
Cosmos 2266 Rocket 4.1 16:53:03 10° N 16:59:05 52° ENE 17:04:59 10° SSE
Cosmos 2098 Rocket 3.1 16:58:00 10° S 17:02:00 62° E 17:06:45 10° NNE
Cosmos 2208 Rocket 4.1 16:57:27 10° NNW 17:02:39 84° WSW 17:07:49 10° SSE
Cosmos 2151 2.9 17:00:15 10° N 17:04:21 56° ENE 17:08:27 10° SSE
Cosmos 1743 2.1 17:01:48 10° N 17:05:03 69° ENE 17:08:17 10° SSE
Cosmos 1980 Rocket 3.7 17:03:47 10° SE 17:06:50 15° E 17:08:01 14° E
SPOT 1/Viking Rocket 4.1 17:02:19 10° SE 17:06:58 34° ENE 17:11:37 10° N
Cosmos 1844 Rocket 4.5 17:07:24 10° N 17:09:47 13° NNE 17:10:59 12° NE
SL-08 ROCKET BODY 4.5 17:06:40 10° N 17:12:38 83° W 17:18:39 10° S
SL-16 R/B 2.9 17:09:47 10° NNE 17:16:00 68° WNW 17:22:07 10° SSW
Cosmos 2263 Rocket 2.8 17:12:33 10° NNW 17:17:43 34° NE 17:22:51 10° ESE
NOSS 3-2 (C) 3.3 17:13:52 10° SSW 17:18:44 54° ESE 17:23:02 18° NE
NOSS 3-2 (A) 3.3 17:13:41 10° SW 17:18:46 73° NW 17:24:05 14° NE
CORIOLIS 4.3 17:14:41 10° S 17:20:01 77° WSW 17:25:23 10° NNW
Cosmos 783 Rocket 4.4 17:18:25 10° NNW 17:23:44 72° ENE 17:29:01 10° SSE
MOS 1 Rocket 3.4 17:19:16 10° SSE 17:24:06 66° ENE 17:29:13 10° N
GEOS 3 Rocket 3.7 17:19:36 14° NE 17:24:17 86° NW 17:29:40 10° SW
BREEZE M DEB (TANK) 2.8 17:22:43 10° SW 17:24:52 28° SSE 17:25:20 25° SE
Cosmos 1076 Rocket 4.1 17:22:05 10° N 17:26:00 34° ENE 17:29:56 10° SE
AQUARIUS 4.0 17:22:43 10° SSE 17:27:06 73° ENE 17:31:31 10° N
Cosmos 1933 3.4 17:24:28 10° SSE 17:28:08 47° E 17:30:45 18° NNE
SJ-12 3.6 17:26:13 10° SSE 17:29:59 89° WSW 17:33:48 10° NNW
Cosmos 2084 Rocket 3.3 17:26:12 10° NW 17:30:27 88° SW 17:34:39 10° SE
Cosmos 2227 Rocket 2.2 17:25:05 10° NNW 17:30:43 63° ENE 17:36:18 10° SE
Cosmos 1606 Rocket 3.7 17:27:22 10° S 17:31:37 50° E 17:35:23 13° NNE
BlueWalker 3 4.1 17:28:52 10° W 17:31:52 25° SW 17:34:52 10° SSE
Cosmos 2360 4.2 17:26:34 10° SSW 17:32:18 88° WNW 17:37:25 13° NNE
Meteor 1-28 Rocket 4.4 17:29:32 10° N 17:32:38 35° WNW 17:35:42 10° SW
Cosmos 1900 4.3 17:28:04 10° NW 17:33:09 86° NE 17:38:07 10° SE
Thor Agena Rocket 4.5 17:28:18 10° S 17:33:23 52° W 17:38:27 10° NNW
Cosmos 2369 Rocket 4.4 17:31:51 10° WNW 17:35:23 16° NNW 17:38:55 10° N
PSLV R/B 4.1 17:36:04 29° E 17:36:52 31° ENE 17:40:28 10° N
CZ-2D R/B 3.7 17:33:36 10° SE 17:37:35 44° ENE 17:41:33 10° N
NOSS 2-2 (D) 3.7 17:35:40 10° WSW 17:38:44 39° NW 17:40:03 25° NNE
COSMO-SKYMED 1 3.5 17:39:15 26° ESE 17:39:15 26° ESE 17:42:19 10° SSE
SL-19 R/B 4.5 17:36:20 10° SE 17:41:24 44° ENE 17:46:45 10° N
Resurs 1-3 3.9 17:37:36 10° SE 17:41:37 40° ENE 17:45:39 10° N
Cosmos 1503 Rocket 3.9 17:36:44 10° SSW 17:41:59 83° ESE 17:46:10 16° NNE
BREEZE-M DEB (TANK) 3.5 17:39:25 10° W 17:42:38 89° S 17:48:33 20° E
Cosmos 1697 Rocket 2.7 17:41:55 10° SSW 17:47:25 62° ESE 17:50:44 24° NE
Lacrosse 5 rocket 2.3 17:45:50 10° WNW 17:49:06 28° NNW 17:49:58 25° NNE
Okean 1-7 Rocket 3.8 17:44:59 10° NNW 17:49:23 71° W 17:53:42 10° S
Cosmos 1354 Rocket 3.9 17:45:01 10° SSW 17:50:15 70° ESE 17:53:34 23° NNE
BREEZE-M DEB (TANK) 3.9 17:48:32 10° WNW 17:51:54 66° N 17:57:03 26° E
Cosmos 1461 2.6 17:49:09 10° SW 17:53:03 90° NW 17:54:18 42° NE
NOSS 2-2 (E) 3.9 17:50:38 10° WSW 17:53:37 36° NW 17:54:24 30° N
Spot 4 Rocket 3.9 17:50:21 10° SSE 17:55:22 62° ENE 18:00:26 10° N
IRAS Rocket 4.2 17:51:16 10° SE 17:56:37 56° ENE 18:01:58 10° N
Cosmos 1726 Rocket 3.6 17:52:16 10° S 17:56:53 69° E 17:59:49 22° NNE
Cosmos 1655 Rocket 3.9 17:54:12 10° N 18:00:28 79° E 18:06:41 10° SSE
Cosmos 1777 Rocket 4.4 17:55:56 10° SW 18:01:09 62° WNW 18:05:19 16° NNE
SKYMED 2 3.5 17:59:35 33° NNE 18:01:28 67° ESE 18:05:47 10° S
Gbstr 26 Del rocket 3.1 17:58:37 10° SW 18:02:26 45° SSE 18:02:38 44° SE
NOAA 15 4.5 18:00:37 10° SSE 18:05:54 78° ENE 18:11:13 10° NNW
Meteor 2-10 4.0 18:02:23 10° N 18:07:40 62° ENE 18:13:07 10° SSE
CENTAUR R/B 3.8 18:02:28 10° W 18:08:09 34° NNW 18:12:28 20° NNE
YAOGAN 1 2.3 18:06:00 10° SSE 18:10:15 78° ENE 18:14:32 10° N
NOSS 2-3 (C) 4.3 18:10:42 10° SSW 18:12:45 29° S 18:12:45 29° S
USA 281 4.4 18:17:15 22° NNE 18:17:15 22° NNE 18:21:19 10° N
Cosmos 2082 3.9 18:11:08 10° NNW 18:16:41 48° NE 18:17:04 48° ENE
Meteor 1-26 Rocket 4.3 18:13:13 10° SSE 18:18:03 48° ESE 18:18:03 48° ESE
USA 238 DEB 3.7 18:13:02 10° SSW 18:18:51 49° ESE 18:19:57 45° E
Cosmos 1867 4.4 18:13:37 10° NW 18:18:54 51° WSW 18:24:08 10° SSE
USA 238 3.7 18:13:09 10° SSW 18:18:59 49° ESE 18:20:02 45° E
Resurs 01 Rocket 4.1 18:25:01 10° N 18:25:01 10° N 18:25:03 10° N
Cosmos 2297 Rocket 4.3 18:18:29 10° NW 18:23:10 27° WSW 18:27:52 10° SSW
Cosmos 1953 Rocket 3.7 18:19:16 10° NNW 18:23:42 73° W 18:28:08 10° S
USA 215 3.5 18:22:49 42° ENE 18:24:39 53° NNE 18:31:00 10° WNW
Cosmos 372 Rocket 4.2 18:22:10 10° S 18:26:26 49° SE 18:26:26 49° SE
Cosmos-2242 4.4 18:23:13 10° S 18:25:06 25° S 18:25:06 25° S
Aureole 1 Rocket 3.6 18:23:59 10° S 18:27:16 48° SSE 18:27:16 48° SSE
CZ-4C R/B 4.0 18:28:47 10° NW 18:35:34 47° WSW 18:43:44 10° S
USA 81 4.1 18:32:02 10° N 18:37:19 75° W 18:42:33 10° S
Cosmos 990 Rocket 4.4 18:32:51 10° SW 18:37:54 59° WNW 18:39:47 37° N
NOAA 6 4.0 18:35:31 10° SSE 18:40:37 81° WSW 18:45:46 10° NNW
Cosmos 2219 3.1 18:35:01 10° NNW 18:40:48 82° ENE 18:41:35 67° SE
Cosmos 1980 Rocket 2.0 18:44:17 10° SSW 18:49:48 83° SSE 18:49:48 83° SSE
Cosmos 2058 Rocket 4.1 18:48:52 10° SSW 18:51:54 42° SW 18:51:54 42° SW
Nadezhda 2 Rocket 4.4 18:48:35 10° N 18:54:46 84° W 19:00:51 10° S
Cosmos 1844 Rocket 4.1 18:50:01 10° NNW 18:52:37 25° N 18:52:37 25° N
Cosmos 2263 Rocket 2.9 18:56:22 10° NW 19:01:51 51° WSW 19:04:58 25° S
Cosmos 1553 Rocket 3.9 19:00:18 10° S 19:06:27 83° W 19:06:49 79° NNW
NOSS 3-2 (C) 4.2 19:04:45 10° W 19:09:47 40° NNW 19:10:27 39° NNW
COSMO-SKYMED 1 4.5 19:15:34 26° WSW 19:15:34 26° WSW 19:17:52 10° SW
Cosmos 2227 Rocket 4.3 19:09:49 10° NW 19:14:18 25° WSW 19:18:47 10° SSW
Cosmos 1697 Rocket 4.2 19:26:55 10° WSW 19:31:47 29° NW 19:32:28 28° NNW
CENTAUR R/B 4.3 19:54:55 10° NW 19:59:33 27° N 19:59:33 27° N
USA 215 4.3 20:10:10 39° WNW 20:10:10 39° WNW 20:14:04 10° WNW
